TimeCDT,TemperatureF,Dew PointF,Humidity,Sea Level PressureIn,VisibilityMPH,Wind Direction,Wind SpeedMPH,Gust SpeedMPH,PrecipitationIn,Events,Conditions,WindDirDegrees,DateUTC
12:53 AM,66.9,55.0,66,29.88,10.0,SSW,9.2,-,N/A,,Clear,200,2013-05-14 05:53:00
1:53 AM,66.0,55.0,68,29.86,10.0,SSW,8.1,-,N/A,,Clear,210,2013-05-14 06:53:00
2:53 AM,64.9,55.0,70,29.84,10.0,SSW,6.9,-,N/A,,Clear,210,2013-05-14 07:53:00
3:53 AM,62.1,53.1,72,29.83,10.0,Calm,Calm,-,N/A,,Clear,0,2013-05-14 08:53:00
4:53 AM,61.0,53.1,75,29.82,10.0,Calm,Calm,-,N/A,,Clear,0,2013-05-14 09:53:00
5:53 AM,55.9,51.1,84,29.82,10.0,Calm,Calm,-,N/A,,Clear,0,2013-05-14 10:53:00
6:53 AM,57.9,51.1,78,29.83,10.0,SSE,4.6,-,N/A,,Clear,150,2013-05-14 11:53:00
7:53 AM,68.0,54.0,61,29.83,10.0,South,3.5,-,N/A,,Clear,190,2013-05-14 12:53:00
8:53 AM,73.9,52.0,46,29.82,10.0,SW,10.4,-,N/A,,Clear,220,2013-05-14 13:53:00
9:53 AM,80.1,50.0,35,29.82,10.0,SW,9.2,-,N/A,,Clear,220,2013-05-14 14:53:00
10:53 AM,82.9,48.9,31,29.81,10.0,SSW,13.8,-,N/A,,Clear,200,2013-05-14 15:53:00
11:53 AM,87.1,48.0,26,29.81,10.0,SW,15.0,-,N/A,,Clear,220,2013-05-14 16:53:00
12:53 PM,90.0,48.9,24,29.78,10.0,South,17.3,25.3,N/A,,Clear,190,2013-05-14 17:53:00
1:53 PM,91.9,50.0,24,29.76,10.0,SSW,18.4,25.3,N/A,,Clear,200,2013-05-14 18:53:00
2:53 PM,93.0,48.9,22,29.75,10.0,SSW,20.7,27.6,N/A,,Clear,200,2013-05-14 19:53:00
3:53 PM,96.1,45.0,17,29.73,10.0,SW,27.6,32.2,N/A,,Clear,220,2013-05-14 20:53:00
4:53 PM,96.1,46.0,18,29.72,10.0,SW,27.6,34.5,N/A,,Clear,220,2013-05-14 21:53:00
5:53 PM,93.9,44.1,18,29.71,10.0,SSW,24.2,36.8,N/A,,Clear,210,2013-05-14 22:53:00
6:53 PM,91.0,43.0,19,29.71,10.0,SW,24.2,32.2,N/A,,Clear,230,2013-05-14 23:53:00
7:53 PM,88.0,45.0,22,29.73,10.0,SW,21.9,29.9,N/A,,Clear,220,2013-05-15 00:53:00
8:53 PM,82.0,46.0,28,29.74,10.0,SSW,16.1,-,N/A,,Clear,200,2013-05-15 01:53:00
9:53 PM,80.1,45.0,29,29.76,10.0,SSW,13.8,-,N/A,,Clear,210,2013-05-15 02:53:00
10:53 PM,77.0,46.0,33,29.77,10.0,SSW,12.7,-,N/A,,Clear,200,2013-05-15 03:53:00
11:53 PM,75.9,48.9,38,29.78,10.0,SSW,11.5,-,N/A,,Clear,210,2013-05-15 04:53:00